Hobbs, NM

6:43 AM MST on February 22, 2018 (GMT -0700)
Lea County Regional

Weather History for KHOB - February, 2013

Change the Weather History Date:

Friday, February 22, 2013

  Actual Average Record
Temperature  
Mean Temperature 40 °F -  
Max Temperature 53 °F 58 °F 80 °F (2017)
Min Temperature 26 °F 33 °F 13 °F (1953)
Degree Days  
Heating Degree Days 26    
Moisture  
Dew Point 27 °F    
Average Humidity 70    
Maximum Humidity 100    
Minimum Humidity 24    
Precipitation  
Precipitation 0.00 in - - ()
Sea Level Pressure  
Sea Level Pressure 29.96 in    
Wind  
Wind Speed 5 mph (East)    
Max Wind Speed 13 mph    
Max Gust Speed 18 mph    
Visibility 8 miles    
Events Fog    
Averages and records for this station are not official NWS values.
T = Trace of Precipitation, MM = Missing Value Source: NWS Daily Summary

Daily Weather History Graph

Daily Weather History Graph

Search for Another Location

Airport or City:

Trip Planner

Search our weather history database for the weather conditions in past years. The results will help you decide how hot, cold, wet, or windy it might be!

Date:

Astronomy

Feb. 22, 2013 Rise Set
Actual Time 6:28 AM MST 5:44 PM MST
Civil Twilight 6:03 AM MST 6:09 PM MST
Nautical Twilight 5:34 AM MST 6:38 PM MST
Astronomical Twilight 5:06 AM MST 7:06 PM MST
Moon 3:04 PM MST 4:08 AM MST
Length of Visible Light 12h 06m
Length of Day
11h 16m
Waxing Gibbous, 90% of the Moon is Illuminated
Feb 22
Waxing Gibbous
Feb 25
Full
Mar 4
Last Quarter
Mar 11
New
Mar 19
First Quarter

Hourly Weather History & Observations

Time (MST) Temp. Windchill Dew Point Humidity Pressure Visibility Wind Dir Wind Speed Gust Speed Precip Events Conditions
12:15 AM 33.8 °F - 24.8 °F 70% 29.90 in 10.0 mi Calm Calm - N/A   Clear
12:35 AM 33.8 °F 26.4 °F 24.8 °F 70% 29.90 in 10.0 mi West 9.2 mph - N/A   Clear
12:55 AM 35.6 °F - 24.8 °F 65% 29.91 in 10.0 mi Calm Calm - N/A   Clear
1:15 AM 33.8 °F - 24.8 °F 70% 29.91 in 10.0 mi Calm Calm - N/A   Clear
1:35 AM 35.6 °F 28.6 °F 24.8 °F 65% 29.92 in 10.0 mi NE 9.2 mph - N/A   Clear
1:55 AM 32.0 °F - 28.4 °F 87% 29.92 in 10.0 mi Calm Calm - N/A   Clear
2:15 AM 32.0 °F 28.7 °F 32.0 °F 100% 29.92 in 6.0 mi ENE 3.5 mph - N/A   Clear
2:35 AM 32.0 °F - 32.0 °F 100% 29.92 in 5.0 mi Calm Calm - N/A   Clear
2:55 AM 32.0 °F - 32.0 °F 100% 29.92 in 5.0 mi Calm Calm - N/A   Partly Cloudy
3:15 AM 32.0 °F 26.4 °F 32.0 °F 100% 29.93 in 3.0 mi NE 5.8 mph - N/A   Mostly Cloudy
3:35 AM 32.0 °F 23.6 °F 32.0 °F 100% 29.93 in 0.5 mi ENE 10.4 mph - N/A Fog Light Freezing Fog
3:55 AM 32.0 °F 24.2 °F 32.0 °F 100% 29.94 in 0.2 mi East 9.2 mph - N/A Fog Light Freezing Fog
6:10 AM 28.4 °F 19.7 °F 28.4 °F 100% 29.99 in 0.2 mi East 9.2 mph - N/A   Clear
7:50 AM 28.4 °F 19.7 °F 28.4 °F 100% 30.02 in 0.5 mi East 9.2 mph - N/A Fog Light Freezing Fog
8:00 AM 28.4 °F 19.7 °F 28.4 °F 100% 30.03 in 1.0 mi East 9.2 mph - N/A   Overcast
8:20 AM 26.6 °F 17.5 °F 26.6 °F 100% 30.04 in 3.0 mi East 9.2 mph - N/A   Overcast
8:50 AM 28.4 °F 20.4 °F 28.4 °F 100% 30.03 in 3.0 mi ESE 8.1 mph - N/A   Overcast
9:50 AM 30.2 °F 21.3 °F 30.2 °F 100% 30.03 in 7.0 mi East 10.4 mph - N/A   Mostly Cloudy
10:18 AM 33.8 °F 26.4 °F 28.4 °F 81% 30.03 in 10.0 mi East 9.2 mph - N/A   Scattered Clouds
10:50 AM 35.6 °F 29.9 °F 28.4 °F 75% 30.03 in 10.0 mi East 6.9 mph - N/A   Scattered Clouds
11:50 AM 39.2 °F 34.2 °F 26.6 °F 61% 30.01 in 10.0 mi ENE 6.9 mph - N/A   Clear
1:50 PM 46.4 °F - 26.6 °F 46% 29.95 in 10.0 mi Calm Calm - N/A   Clear
2:50 PM 50.0 °F - 24.8 °F 37% 29.93 in 10.0 mi Variable 5.8 mph - N/A   Clear
4:50 PM 53.6 °F - 17.6 °F 24% 29.91 in 10.0 mi SSW 11.5 mph - N/A   Partly Cloudy
5:15 PM 53.6 °F - 17.6 °F 24% 29.92 in 10.0 mi SW 9.2 mph 18.4 mph N/A   Clear
5:35 PM 51.8 °F - 17.6 °F 26% 29.93 in 10.0 mi SW 12.7 mph - N/A   Clear
5:45 PM 50.0 °F - 17.6 °F 28% 29.93 in 10.0 mi SSW 5.8 mph - N/A   Clear
5:55 PM 48.2 °F - 19.4 °F 32% 29.94 in 10.0 mi Calm Calm - N/A   Clear
6:15 PM 46.4 °F - 21.2 °F 37% 29.94 in 10.0 mi Calm Calm - N/A   Clear
6:35 PM 42.8 °F - 24.8 °F 49% 29.94 in 10.0 mi Calm Calm - N/A   Clear
6:55 PM 41.0 °F 35.8 °F 26.6 °F 57% 29.95 in 10.0 mi East 8.1 mph - N/A   Clear
7:15 PM 41.0 °F - 26.6 °F 57% 29.96 in 10.0 mi Calm Calm - N/A   Clear
7:35 PM 39.2 °F - 28.4 °F 65% 29.95 in 10.0 mi Calm Calm - N/A   Clear
7:55 PM 39.2 °F - 28.4 °F 65% 29.96 in 10.0 mi Calm Calm - N/A   Clear
8:15 PM 37.4 °F - 26.6 °F 65% 29.97 in 10.0 mi Calm Calm - N/A   Clear
8:35 PM 37.4 °F 32.8 °F 28.4 °F 70% 29.96 in 10.0 mi East 5.8 mph - N/A   Clear
8:55 PM 37.4 °F - 28.4 °F 70% 29.97 in 10.0 mi Calm Calm - N/A   Clear
9:15 PM 37.4 °F - 28.4 °F 70% 29.97 in 10.0 mi Calm Calm - N/A   Clear
9:35 PM 35.6 °F 31.7 °F 28.4 °F 75% 29.97 in 10.0 mi East 4.6 mph - N/A   Clear
9:55 PM 37.4 °F 33.8 °F 26.6 °F 65% 29.97 in 10.0 mi ESE 4.6 mph - N/A   Clear
10:15 PM 37.4 °F 30.8 °F 26.6 °F 65% 29.97 in 10.0 mi ESE 9.2 mph - N/A   Clear
10:35 PM 35.6 °F 28.0 °F 26.6 °F 70% 29.96 in 10.0 mi ESE 10.4 mph - N/A   Clear
10:55 PM 35.6 °F 28.6 °F 26.6 °F 70% 29.96 in 10.0 mi ESE 9.2 mph - N/A   Clear
11:15 PM 35.6 °F 28.6 °F 26.6 °F 70% 29.96 in 10.0 mi ESE 9.2 mph - N/A   Clear
11:35 PM 35.6 °F 31.7 °F 26.6 °F 70% 29.96 in 10.0 mi SE 4.6 mph - N/A   Clear